[[{"header":{"parameterUnit":"m.s-1","parameterCategory":1,"la1":30.2991,"la2":30.254,"lo1":-89.0895,"lo2":-89.0444,"dy":0.0017,"dx":0.0017,"nx":28,"ny":28,"refTime":"2023-09-24T21:00:00:Z","depth":0,"parameterNumber":2,"parameterNumberName":"U-component_of_WINDS"},"data":[0,0,0,0,0,0,0,0,0,0,0,0,0,0,0,0,0,0,0,0,0,0,0,0,0,0,0,0,0,0,0,0,0,0,0,0,0,0,0,0,0,0,0,0,0,0,0,0,0,0,0,0,0,0,0,0,0,0,1.3089,1.3089,0,1.3088,1.3088,1.3088,1.3114,1.3115,1.3116,1.3116,1.3112,1.3111,1.311,0,0,0,0,0,0,0,0,0,0,0,0,0,1.311,1.3109,1.3089,1.3089,1.3089,1.3088,1.3088,1.3088,1.3114,1.3115,1.3116,1.3117,1.3112,1.3111,1.311,0,0,0,0,0,0,0,0,0,0,0,0,0,1.3104,1.3109,1.3089,1.3102,1.3103,1.3088,1.3088,1.3088,1.3114,1.3115,1.3116,1.3117,1.3112,1.3111,1.311,1.3081,0,0,1.3107,1.3106,0,0,0,0,0,0,0,0,1.3104,1.3103,1.31,1.3101,1.3102,1.3102,1.3094,1.3085,1.3114,1.311,1.3116,1.3118,1.3108,1.3107,1.3104,1.3081,1.3081,1.3106,1.3106,1.3105,1.3105,0,0,0,0,0,0,0,1.3104,1.3103,1.3088,1.31,1.3101,1.3106,1.3107,1.3092,1.3102,1.311,1.3112,1.3112,1.3108,1.3105,1.3104,1.3081,1.3107,1.3105,1.3105,1.3104,1.3033,1.3032,0,0,0,0,0,0,1.3103,1.3103,1.3088,1.3088,1.3106,1.3105,1.3106,1.3101,1.3103,1.3104,1.3111,1.3113,1.3107,1.3106,1.3104,1.307,1.3105,1.3104,1.3104,1.3034,1.3033,1.3032,0,0,0,0,0,0,1.3104,1.3102,1.3088,1.3096,1.3095,1.3104,1.3098,1.31,1.3097,1.3103,1.3105,1.3106,1.3108,1.3106,1.3087,1.307,1.3104,1.3103,1.3036,1.3034,1.3032,1.3002,0,0,0,0,0,0,1.3104,1.3102,1.3092,1.3096,1.3094,1.3072,1.3097,1.31,1.3096,1.3099,1.3099,1.31,1.3108,1.3089,1.3086,1.3069,1.3102,1.3037,1.3035,1.3033,1.3004,1.2999,1.2995,0,0,0,0,0,1.3105,1.3083,1.3091,1.3089,1.3082,1.3071,1.307,1.3081,1.3094,1.3084,1.3087,1.31,1.3073,1.3086,1.3083,1.3066,1.3038,1.3036,1.3033,1.3006,1.3,1.2995,0,0,0,0,0,0,1.3075,1.3083,1.3093,1.3072,1.307,1.3075,1.3062,1.3074,1.3068,1.307,1.3083,1.3083,1.3061,1.3062,1.3077,1.3038,1.3058,1.3054,1.3038,1.3033,1.3028,1.3028,1.3101,0,0,0,0,0,1.3067,1.3058,1.3065,1.3045,1.3044,1.3053,1.3049,1.3057,1.3056,1.3055,1.3058,1.3055,1.3046,1.3039,1.3031,1.3005,1.3004,1.2991,1.2987,1.2983,1.2979,1.2964,1.2958,1.3023,1.3023,1.3023,0,0,1.3048,1.3051,1.3045,1.3039,1.304,1.3029,1.3053,1.3041,1.3033,1.3053,1.3035,1.3037,1.3035,1.3012,1.3002,1.3011,1.2961,1.2979,1.2976,1.2975,1.2961,1.2955,1.2949,1.3021,1.3021,1.3022,0,0,1.3008,1.301,1.2994,1.2994,1.2994,1.3,1.2996,1.2999,1.3001,1.2984,1.2999,1.2989,1.2973,1.2971,1.2967,1.2927,1.2938,1.2924,1.2898,1.2884,1.2878,1.2874,1.2858,1.2853,1.292,1.292,1.292,0,1.2985,1.2971,1.2984,1.2971,1.2967,1.2987,1.2969,1.2968,1.2965,1.2962,1.2973,1.2953,1.2953,1.2929,1.292,1.2917,1.2911,1.2923,1.2878,1.2874,1.287,1.2855,1.2849,1.2919,1.2919,1.2919,1.2919,0,1.2941,1.2931,1.2917,1.2915,1.291,1.2895,1.2905,1.2898,1.2907,1.2911,1.2893,1.2894,1.2885,1.2881,1.2889,1.2857,1.2864,1.2877,1.2896,1.2862,1.2848,1.2843,1.2916,1.2917,1.2917,1.2918,0,0,1.2882,1.2888,1.2883,1.2881,1.2883,1.2875,1.286,1.2853,1.2847,1.2844,1.2831,1.2817,1.2829,1.2825,1.2833,1.282,1.2786,1.2834,1.2835,1.2825,1.2751,1.274,1.2734,1.2794,1.2793,1.2792,1.2751,0,1.2843,1.282,1.2831,1.2805,1.2795,1.2813,1.28,1.2799,1.2803,1.2794,1.2798,1.2787,1.2804,1.2802,1.279,1.2793,1.2771,1.2796,1.2781,1.278,1.278,1.2727,1.2716,1.2676,1.2745,1.2745,1.2744,0,1.2795,1.2791,1.2764,1.2767,1.2764,1.2752,1.2746,1.2738,1.2736,1.274,1.2736,1.2746,1.273,1.2751,1.2729,1.2745,1.274,1.274,1.2739,1.2737,1.2759,1.2722,1.2664,1.2658,1.2736,1.2736,1.2737,0,1.2754,1.2742,1.2724,1.2723,1.2726,1.2717,1.2718,1.2718,1.2712,1.2707,1.2704,1.2696,1.2692,1.2685,1.2693,1.2707,1.2669,1.269,1.267,1.267,1.266,1.2661,1.2599,1.2658,1.2658,1.2658,1.2659,0,1.2708,1.2691,1.2706,1.2695,1.2676,1.2688,1.2669,1.2671,1.2671,1.266,1.2675,1.2663,1.2675,1.2665,1.267,1.265,1.2648,1.265,1.2651,1.2648,1.2648,1.2644,1.2646,1.2657,1.2657,1.2658,1.2658,0,1.2659,1.2668,1.265,1.2655,1.2655,1.2641,1.2644,1.2634,1.2639,1.2624,1.2622,1.2629,1.2617,1.2625,1.2613,1.2617,1.259,1.2596,1.2591,1.2592,1.2571,1.2573,1.2504,1.2496,1.2561,1.256,1.256,0,1.2629,1.2616,1.262,1.2614,1.2614,1.2604,1.26,1.2611,1.2605,1.2603,1.2592,1.2582,1.2575,1.2555,1.2558,1.2549,1.2554,1.2531,1.2553,1.2549,1.2552,1.2553,1.2551,1.2526,1.2525,1.2525,1.2524,0,1.2575,1.258,1.2573,1.2567,1.2561,1.2557,1.2554,1.2548,1.256,1.2552,1.2541,1.2536,1.2524,1.2513,1.2505,1.2505,1.2515,1.2517,1.2512,1.2508,1.2505,1.2505,1.2578,1.2519,1.2519,1.252,1.252,1.252,1.2533,1.2523,1.2524,1.2515,1.2514,1.2511,1.2501,1.2505,1.2496,1.2488,1.2496,1.2482,1.248,1.2471,1.2468,1.2457,1.2466,1.2459,1.2457,1.2454,1.2451,1.2508,1.2456,1.2456,1.2456,1.2456,1.2456,0,1.2479,1.2481,1.2473,1.2468,1.2461,1.2474,1.2471,1.2464,1.2452,1.245,1.2442,1.2429,1.2419,1.2421,1.2412,1.2402,1.2407,1.2399,1.2399,1.2398,1.2444,1.2449,1.2395,1.2395,1.2395,1.2395,1.2395,1.2395,1.245,1.2432,1.2437,1.2419,1.242,1.2408,1.2405,1.2401,1.24,1.2385,1.2376,1.2379,1.2378,1.2368,1.2359,1.236,1.2355,1.2345,1.2347,1.2389,1.2395,1.2401,1.2406,1.2344,1.2344,1.2303,1.2303,1.2302]},{"header":{"parameterUnit":"m.s-1","parameterCategory":1,"la1":30.2991,"la2":30.254,"lo1":-89.0895,"lo2":-89.0444,"dy":0.0017,"dx":0.0017,"nx":28,"ny":28,"refTime":"2023-09-24T21:00:00:Z","depth":0,"parameterNumber":3,"parameterNumberName":"V-component_of_WINDS"},"data":[0,0,0,0,0,0,0,0,0,0,0,0,0,0,0,0,0,0,0,0,0,0,0,0,0,0,0,0,0,0,0,0,0,0,0,0,0,0,0,0,0,0,0,0,0,0,0,0,0,0,0,0,0,0,0,0,0,0,-0.3116,-0.3115,0,-0.3095,-0.3095,-0.3094,-0.3079,-0.3078,-0.3078,-0.3078,-0.3057,-0.3056,-0.3056,0,0,0,0,0,0,0,0,0,0,0,0,0,-0.3142,-0.3142,-0.3116,-0.3115,-0.3115,-0.3095,-0.3095,-0.3094,-0.3079,-0.3078,-0.3078,-0.3078,-0.3057,-0.3057,-0.3056,0,0,0,0,0,0,0,0,0,0,0,0,0,-0.3127,-0.3142,-0.3116,-0.3105,-0.3104,-0.3095,-0.3095,-0.3094,-0.3079,-0.3078,-0.3078,-0.3078,-0.3057,-0.3057,-0.3056,-0.3056,0,0,-0.3054,-0.3054,0,0,0,0,0,0,0,0,-0.3128,-0.3126,-0.3107,-0.3106,-0.3104,-0.3089,-0.3096,-0.3081,-0.3079,-0.3088,-0.3078,-0.3078,-0.3068,-0.3066,-0.3063,-0.3055,-0.3054,-0.3054,-0.3054,-0.3053,-0.3053,0,0,0,0,0,0,0,-0.3129,-0.3127,-0.3107,-0.3106,-0.3105,-0.3101,-0.3099,-0.3093,-0.3079,-0.3087,-0.3086,-0.3084,-0.3067,-0.3063,-0.3062,-0.3054,-0.3054,-0.3053,-0.3053,-0.3053,-0.3047,-0.3047,0,0,0,0,0,0,-0.3132,-0.3128,-0.3108,-0.3107,-0.3116,-0.3101,-0.3098,-0.3094,-0.3079,-0.3077,-0.3084,-0.3083,-0.3065,-0.3063,-0.3061,-0.3061,-0.3053,-0.3053,-0.3052,-0.3046,-0.3047,-0.3047,0,0,0,0,0,0,-0.3132,-0.313,-0.3109,-0.3117,-0.3114,-0.3101,-0.3096,-0.3094,-0.309,-0.3077,-0.3074,-0.3083,-0.3064,-0.3062,-0.3058,-0.306,-0.3052,-0.3052,-0.3046,-0.3046,-0.3047,-0.3061,0,0,0,0,0,0,-0.3133,-0.313,-0.313,-0.3117,-0.3114,-0.3106,-0.3096,-0.3094,-0.3089,-0.3088,-0.3075,-0.3073,-0.3064,-0.3059,-0.3057,-0.3059,-0.3051,-0.3046,-0.3046,-0.3047,-0.306,-0.3062,-0.3063,0,0,0,0,0,-0.3134,-0.3135,-0.313,-0.3128,-0.3113,-0.3106,-0.3104,-0.3094,-0.3089,-0.3089,-0.3081,-0.3073,-0.306,-0.3059,-0.3057,-0.3059,-0.3046,-0.3046,-0.3047,-0.306,-0.3062,-0.3063,0,0,0,0,0,0,-0.3148,-0.3133,-0.3128,-0.3124,-0.3116,-0.3103,-0.3103,-0.3096,-0.3089,-0.3088,-0.3076,-0.3073,-0.307,-0.3064,-0.3062,-0.3058,-0.3052,-0.3052,-0.3063,-0.3064,-0.3066,-0.3068,-0.3051,0,0,0,0,0,-0.3151,-0.3146,-0.3133,-0.3131,-0.3128,-0.3116,-0.3112,-0.3105,-0.3097,-0.3093,-0.3084,-0.3077,-0.3071,-0.3067,-0.3061,-0.3059,-0.3057,-0.306,-0.3061,-0.3062,-0.3063,-0.3062,-0.3064,-0.3048,-0.3048,-0.3048,0,0,-0.3157,-0.3148,-0.3146,-0.3134,-0.3127,-0.3123,-0.3113,-0.3109,-0.3106,-0.3093,-0.3088,-0.3081,-0.3072,-0.3069,-0.3067,-0.3064,-0.3066,-0.3063,-0.3064,-0.3064,-0.3063,-0.3064,-0.3066,-0.3049,-0.3049,-0.3049,0,0,-0.3165,-0.3158,-0.3156,-0.3149,-0.3139,-0.3131,-0.3131,-0.3119,-0.3114,-0.3109,-0.3099,-0.3095,-0.3085,-0.3079,-0.3075,-0.3081,-0.3074,-0.3079,-0.3087,-0.3087,-0.3088,-0.3089,-0.3092,-0.3093,-0.308,-0.308,-0.308,0,-0.3174,-0.3166,-0.3156,-0.3152,-0.3147,-0.3136,-0.3134,-0.3128,-0.3116,-0.3114,-0.311,-0.3098,-0.309,-0.3086,-0.3088,-0.3084,-0.3084,-0.3081,-0.3089,-0.3089,-0.309,-0.3093,-0.3094,-0.3081,-0.3081,-0.308,-0.308,0,-0.3178,-0.3173,-0.3173,-0.3162,-0.3157,-0.3155,-0.3144,-0.314,-0.3134,-0.3126,-0.3122,-0.3113,-0.3105,-0.3103,-0.3097,-0.3098,-0.3097,-0.3091,-0.3084,-0.3093,-0.3095,-0.3096,-0.3082,-0.3081,-0.3081,-0.3081,0,0,-0.3194,-0.3178,-0.3178,-0.3173,-0.3162,-0.3158,-0.3155,-0.3147,-0.3145,-0.3137,-0.3135,-0.3127,-0.3122,-0.3117,-0.3109,-0.3109,-0.3115,-0.3103,-0.3103,-0.3106,-0.3118,-0.3123,-0.3124,-0.3111,-0.3111,-0.3111,-0.3119,0,-0.3201,-0.3195,-0.3185,-0.3183,-0.3178,-0.3167,-0.3165,-0.3158,-0.3151,-0.3146,-0.3139,-0.3134,-0.3127,-0.3124,-0.3123,-0.3115,-0.3118,-0.3114,-0.3109,-0.3109,-0.3112,-0.3125,-0.313,-0.3138,-0.3119,-0.312,-0.312,0,-0.3208,-0.3202,-0.3199,-0.3188,-0.3186,-0.3183,-0.3176,-0.3172,-0.3164,-0.3159,-0.3153,-0.3145,-0.3142,-0.3136,-0.3131,-0.3129,-0.3126,-0.3122,-0.3122,-0.3122,-0.3115,-0.3125,-0.314,-0.3141,-0.3121,-0.3121,-0.3121,0,-0.3221,-0.3212,-0.3209,-0.3205,-0.3192,-0.3191,-0.3186,-0.3177,-0.3173,-0.3167,-0.3164,-0.3158,-0.3154,-0.3149,-0.314,-0.3136,-0.3136,-0.3129,-0.3133,-0.3133,-0.3134,-0.3134,-0.3148,-0.3131,-0.3131,-0.3131,-0.3131,0,-0.323,-0.3229,-0.3215,-0.3213,-0.3211,-0.32,-0.3199,-0.3193,-0.3185,-0.3182,-0.3172,-0.317,-0.3157,-0.3153,-0.3146,-0.3144,-0.3142,-0.3138,-0.3136,-0.3139,-0.314,-0.3138,-0.3137,-0.3131,-0.3131,-0.3131,-0.3131,0,-0.3245,-0.3235,-0.3232,-0.322,-0.3217,-0.3216,-0.3206,-0.3204,-0.3197,-0.3193,-0.3192,-0.3181,-0.3176,-0.3166,-0.3158,-0.3153,-0.3153,-0.3149,-0.3155,-0.3154,-0.3159,-0.3159,-0.3173,-0.3174,-0.3155,-0.3156,-0.3156,0,-0.3252,-0.325,-0.3239,-0.3236,-0.3231,-0.3227,-0.3223,-0.3212,-0.3209,-0.32,-0.3199,-0.3193,-0.3188,-0.3181,-0.3172,-0.3166,-0.3162,-0.3168,-0.3161,-0.3165,-0.3163,-0.3164,-0.3164,-0.3169,-0.317,-0.317,-0.317,0,-0.3264,-0.326,-0.3255,-0.3249,-0.3244,-0.3239,-0.3233,-0.3231,-0.3219,-0.3216,-0.3211,-0.3207,-0.3199,-0.3193,-0.3186,-0.3181,-0.3174,-0.3172,-0.3173,-0.3176,-0.318,-0.3179,-0.316,-0.3172,-0.3172,-0.3171,-0.3171,-0.3171,-0.3276,-0.3274,-0.3266,-0.3261,-0.3255,-0.325,-0.3248,-0.3241,-0.3236,-0.3229,-0.3223,-0.3219,-0.3211,-0.32,-0.3196,-0.3192,-0.3189,-0.3189,-0.319,-0.319,-0.3192,-0.318,-0.3191,-0.3191,-0.3191,-0.3191,-0.319,0,-0.3289,-0.3283,-0.3278,-0.327,-0.3267,-0.326,-0.3253,-0.325,-0.3247,-0.324,-0.3235,-0.323,-0.3224,-0.3215,-0.321,-0.3209,-0.3205,-0.3208,-0.3208,-0.3207,-0.3195,-0.3195,-0.321,-0.321,-0.321,-0.321,-0.321,-0.321,-0.3295,-0.3293,-0.3287,-0.3282,-0.3276,-0.3272,-0.3269,-0.3264,-0.3259,-0.3253,-0.3249,-0.3243,-0.3235,-0.3229,-0.3224,-0.3222,-0.322,-0.3224,-0.322,-0.3209,-0.3208,-0.3206,-0.3206,-0.3223,-0.3224,-0.3233,-0.3233,-0.3233]}]]